| time (UTC) | temp C | wind direction | speed KPH | gust KPH | rain 1hr cm | rain 24hr cm | rain mn cm | humidity % | barometer mb |
| 20260506190059 | 0 | 0 | 0.0 | 0.0 | 0.00 | 0.00 | 0.00 | 89 | 1019.5 |
| 20260506184559 | -1 | 0 | 0.0 | 0.0 | 0.00 | 0.00 | 0.00 | 88 | 1019.7 |
| 20260506183056 | 0 | 0 | 0.0 | 0.0 | 0.00 | 0.00 | 0.00 | 87 | 1019.8 |
| 20260506181556 | -1 | 0 | 0.0 | 0.0 | 0.00 | 0.00 | 0.00 | 88 | 1019.9 |
| 20260506180058 | -1 | 0 | 0.0 | 0.0 | 0.00 | 0.00 | 0.00 | 91 | 1020.0 |
| 20260506174554 | -1 | 0 | 0.0 | 0.0 | 0.00 | 0.00 | 0.00 | 91 | 1020.0 |
| 20260506173108 | -2 | 0 | 0.0 | 0.0 | 0.00 | 0.00 | 0.00 | 91 | 1019.9 |
| 20260506171610 | -2 | 0 | 0.0 | 0.0 | 0.00 | 0.00 | 0.00 | 90 | 1019.9 |
| 20260506164618 | -2 | 0 | 0.0 | 0.0 | 0.00 | 0.00 | 0.00 | 92 | 1019.6 |
| 20260506163106 | -3 | 0 | 0.0 | 0.0 | 0.00 | 0.00 | 0.00 | 92 | 1019.5 |
| 20260506161559 | -2 | 0 | 0.0 | 0.0 | 0.00 | 0.00 | 0.00 | 92 | 1019.3 |
| 20260506160112 | -2 | 0 | 0.0 | 0.0 | 0.00 | 0.00 | 0.00 | 92 | 1018.9 |
| 20260506154558 | -2 | 0 | 0.0 | 0.0 | 0.00 | 0.00 | 0.00 | 92 | 1018.9 |
| 20260506153103 | -3 | 0 | 0.0 | 0.0 | 0.00 | 0.00 | 0.00 | 93 | 1018.9 |
| 20260506151601 | -3 | 0 | 0.0 | 0.0 | 0.00 | 0.00 | 0.00 | 92 | 1018.7 |
| 20260506150055 | -2 | 0 | 0.0 | 0.0 | 0.00 | 0.00 | 0.00 | 92 | 1018.7 |
| 20260506144557 | -2 | 0 | 0.0 | 0.0 | 0.00 | 0.00 | 0.00 | 93 | 1018.6 |
| 20260506143059 | -3 | 0 | 0.0 | 0.0 | 0.00 | 0.00 | 0.00 | 93 | 1018.4 |
| 20260506141610 | -3 | 0 | 0.0 | 0.0 | 0.00 | 0.00 | 0.00 | 93 | 1018.3 |
| 20260506140058 | -3 | 0 | 0.0 | 0.0 | 0.00 | 0.00 | 0.00 | 93 | 1018.3 |
| 20260506134555 | -3 | 0 | 0.0 | 0.0 | 0.00 | 0.00 | 0.00 | 93 | 1018.2 |
| 20260506133107 | -3 | 0 | 0.0 | 0.0 | 0.00 | 0.00 | 0.00 | 93 | 1018.2 |
| 20260506131556 | -3 | 0 | 0.0 | 0.0 | 0.00 | 0.00 | 0.00 | 93 | 1018.0 |
| 20260506130058 | -3 | 0 | 0.0 | 0.0 | 0.00 | 0.00 | 0.00 | 94 | 1017.4 |
| 20260506124557 | -3 | 0 | 0.0 | 0.0 | 0.00 | 0.00 | 0.00 | 94 | 1017.0 |
| 20260506123058 | -3 | 0 | 0.0 | 0.0 | 0.00 | 0.00 | 0.00 | 94 | 1016.7 |
| 20260506121613 | -3 | 0 | 0.0 | 0.0 | 0.00 | 0.00 | 0.00 | 94 | 1016.7 |
| 20260506120125 | -3 | 0 | 0.0 | 0.0 | 0.00 | 0.00 | 0.00 | 94 | 1016.7 |
| 20260506114606 | -3 | 0 | 0.0 | 0.0 | 0.00 | 0.00 | 0.00 | 94 | 1016.3 |
| 20260506113110 | -3 | 0 | 0.0 | 0.0 | 0.00 | 0.00 | 0.00 | 93 | 1016.4 |
| 20260506111609 | -3 | 0 | 0.0 | 0.0 | 0.00 | 0.00 | 0.00 | 93 | 1016.2 |
| 20260506110112 | -3 | 0 | 0.0 | 0.0 | 0.00 | 0.00 | 0.00 | 94 | 1016.2 |
| 20260506104605 | -3 | 0 | 0.0 | 0.0 | 0.00 | 0.00 | 0.00 | 94 | 1016.2 |
| 20260506103100 | -3 | 0 | 0.0 | 0.0 | 0.00 | 0.00 | 0.00 | 93 | 1016.2 |
| 20260506101558 | -3 | 0 | 0.0 | 0.0 | 0.00 | 0.00 | 0.00 | 93 | 1016.2 |
| 20260506100058 | -3 | 0 | 0.0 | 0.0 | 0.00 | 0.00 | 0.00 | 93 | 1016.4 |
| 20260506094555 | -3 | 0 | 0.0 | 0.0 | 0.00 | 0.18 | 0.00 | 94 | 1016.6 |
| 20260506093058 | -3 | 0 | 0.0 | 0.0 | 0.00 | 0.18 | 0.00 | 94 | 1016.4 |
| 20260506091557 | -3 | 0 | 0.0 | 0.0 | 0.00 | 0.18 | 0.00 | 94 | 1016.2 |
| 20260506090057 | -3 | 0 | 0.0 | 0.0 | 0.00 | 0.18 | 0.00 | 94 | 1016.3 |
| 20260506084556 | -3 | 0 | 0.0 | 0.0 | 0.00 | 0.18 | 0.00 | 93 | 1016.6 |
| 20260506083059 | -3 | 0 | 0.0 | 0.0 | 0.00 | 0.18 | 0.00 | 94 | 1016.5 |
| 20260506081556 | -3 | 0 | 0.0 | 0.0 | 0.00 | 0.18 | 0.00 | 94 | 1016.6 |
| 20260506073102 | -2 | 0 | 0.0 | 0.0 | 0.00 | 0.20 | 0.00 | 94 | 1017.1 |
| 20260506071558 | -2 | 0 | 0.0 | 0.0 | 0.00 | 0.20 | 0.00 | 94 | 1016.4 |
| 20260506070116 | -2 | 0 | 0.0 | 0.0 | 0.00 | 0.20 | 0.00 | 94 | 1016.5 |
| 20260506061602 | -2 | 0 | 0.0 | 0.0 | 0.00 | 0.20 | 0.00 | 94 | 1016.2 |
| 20260506050114 | -2 | 0 | 0.0 | 0.0 | 0.00 | 0.20 | 0.20 | 94 | 1015.9 |
| 20260506044601 | -2 | 0 | 0.0 | 0.0 | 0.00 | 0.20 | 0.20 | 94 | 1015.7 |
| 20260506043055 | -2 | 0 | 0.0 | 0.0 | 0.00 | 0.20 | 0.20 | 94 | 1015.4 |
| 20260506041559 | -2 | 0 | 0.0 | 0.0 | 0.00 | 0.20 | 0.20 | 94 | 1015.7 |
| 20260506040101 | -2 | 0 | 0.0 | 0.0 | 0.00 | 0.20 | 0.20 | 94 | 1015.6 |
| 20260506034557 | -2 | 0 | 0.0 | 0.0 | 0.00 | 0.23 | 0.20 | 94 | 1015.1 |
| 20260506033059 | -2 | 0 | 0.0 | 0.0 | 0.00 | 0.23 | 0.20 | 94 | 1015.3 |
| 20260506031601 | -2 | 0 | 0.0 | 0.0 | 0.00 | 0.23 | 0.20 | 94 | 1015.3 |
| 20260506030112 | -2 | 0 | 0.0 | 0.0 | 0.00 | 0.23 | 0.20 | 94 | 1014.8 |
| 20260506024555 | -2 | 0 | 0.0 | 0.0 | 0.00 | 0.86 | 0.20 | 94 | 1014.6 |
| 20260506023056 | -2 | 0 | 0.0 | 0.0 | 0.00 | 0.86 | 0.20 | 94 | 1014.5 |
| 20260506021607 | -2 | 0 | 0.0 | 0.0 | 0.00 | 0.86 | 0.20 | 94 | 1014.1 |
| 20260506020058 | -2 | 0 | 0.0 | 0.0 | 0.00 | 0.86 | 0.20 | 94 | 1014.0 |
| 20260506014601 | -2 | 0 | 0.0 | 3.2 | 0.00 | 0.97 | 0.20 | 94 | 1013.9 |
| 20260506013058 | -2 | 0 | 0.0 | 1.6 | 0.00 | 0.97 | 0.20 | 94 | 1013.8 |
| 20260506011559 | -2 | 0 | 1.6 | 4.8 | 0.00 | 0.97 | 0.20 | 93 | 1013.4 |
| 20260506010059 | -2 | 0 | 0.0 | 1.6 | 0.00 | 0.97 | 0.20 | 93 | 1013.4 |
| 20260506004627 | -2 | 0 | 0.0 | 3.2 | 0.00 | 0.97 | 0.20 | 94 | 1013.3 |
| 20260506003058 | -2 | 70 | 0.0 | 1.6 | 0.00 | 0.97 | 0.20 | 93 | 1013.4 |
| 20260506001559 | -1 | 0 | 0.0 | 1.6 | 0.00 | 0.97 | 0.20 | 94 | 1013.6 |
| 20260506000057 | -1 | 0 | 0.0 | 1.6 | 0.00 | 0.97 | 0.20 | 94 | 1013.5 |
| 20260505234615 | -1 | 0 | 0.0 | 1.6 | 0.00 | 0.97 | 0.20 | 94 | 1013.5 |
| 20260505233108 | -1 | 0 | 0.0 | 6.4 | 0.00 | 0.97 | 0.20 | 94 | 1013.4 |
| 20260505231600 | -1 | 89 | 0.0 | 3.2 | 0.00 | 0.97 | 0.20 | 94 | 1013.2 |
| 20260505230100 | -1 | 0 | 0.0 | 1.6 | 0.00 | 0.97 | 0.20 | 94 | 1013.3 |
| 20260505224559 | -1 | 122 | 0.0 | 3.2 | 0.00 | 0.99 | 0.20 | 94 | 1013.5 |
| 20260505223104 | -1 | 0 | 0.0 | 3.2 | 0.00 | 0.99 | 0.20 | 94 | 1013.7 |
| 20260505221610 | -1 | 0 | 0.0 | 4.8 | 0.00 | 0.99 | 0.20 | 94 | 1012.8 |
| 20260505220141 | -1 | 39 | 3.2 | 4.8 | 0.00 | 0.99 | 0.20 | 93 | 1012.7 |
| 20260505214617 | -1 | 90 | 1.6 | 9.7 | 0.00 | 0.99 | 0.20 | 93 | 1012.5 |
| 20260505213055 | -1 | 47 | 4.8 | 14.5 | 0.00 | 0.99 | 0.20 | 93 | 1012.2 |
| 20260505211613 | 0 | 36 | 3.2 | 6.4 | 0.00 | 0.99 | 0.20 | 93 | 1012.4 |
| 20260505210055 | 0 | 0 | 1.6 | 9.7 | 0.00 | 0.99 | 0.20 | 94 | 1012.7 |
| 20260505204601 | 0 | 88 | 1.6 | 6.4 | 0.00 | 0.99 | 0.20 | 94 | 1012.6 |
| 20260505203058 | 0 | 0 | 0.0 | 0.0 | 0.00 | 0.99 | 0.20 | 94 | 1013.0 |
| 20260505201607 | 0 | 0 | 0.0 | 0.0 | 0.00 | 0.99 | 0.20 | 94 | 1013.4 |
| 20260505200105 | 0 | 0 | 0.0 | 0.0 | 0.00 | 0.99 | 0.20 | 94 | 1013.6 |
| 20260505194604 | 0 | 0 | 0.0 | 0.0 | 0.00 | 0.99 | 0.20 | 94 | 1013.5 |
| 20260505193056 | 0 | 0 | 0.0 | 0.0 | 0.00 | 0.99 | 0.20 | 94 | 1013.6 |
| 20260505191557 | 0 | 0 | 0.0 | 0.0 | 0.00 | 0.99 | 0.20 | 94 | 1013.7 |